Orbital Elements at Epoch 2459200.5 (2020-Dec-17.0) TDB
Reference: JPL 21 (heliocentric ecliptic J2000)
Element | Value | Uncertainty (1-sigma) | Units |
e | .1662702732363376 | 6.0368e-08 | |
a | 2.654005927030238 | 2.0346e-08 | au |
q | 2.212723636372061 | 1.5858e-07 | au |
i | 13.03599014944964 | 6.5655e-06 | deg |
node | 333.4888891994057 | 2.0054e-05 | deg |
peri | 357.6501201963074 | 2.5749e-05 | deg |
M | 241.1760113092404 | 2.1712e-05 | deg |
tp | 2459721.758182519510 (2022-May-22.25818252) | 9.895e-05 | TDB |
period | 1579.251359718213 4.32 | 1.816e-05 4.972e-08 | d yr |
n | .2279561121063307 | 2.6214e-09 | deg/d |
Q | 3.095288217688415 | 2.3729e-08 | au |
|
| | Orbit Determination Parameters
Additional Information
|